CFG288 EDDF-FAOR

Flight info

Callsign CFG288
Flight time N/A
Altitude 35000
Route ANEKI2L ANEKI Y163 NATOR DCT TRA/N0465F370 DCT RIPUS DCT GERSA DCT SOSON DCT ODINA DCT PIDAD DCT TALEP DCT VAREK DCT ERPIN DCT ETOIL DCT CIRTA UA605 CSO UM2 DJA UB730 RAKOM/N0463F390 UB730 DIR UA607 FL UM731 EXIGO/N0461F410 UM731 RUDAS UQ25 ITROL UQ44 AVAGO AVAGO1C
Aircraft A339/H-SADE1E2E3GHIJ1J3J5M1P2RWXY/LB2D1

Departure

Time N/A
Airport Frankfurt Main Airport (EDDF)

Arrival

Time 2026-05-05 06:50
Airport O.R. Tambo International Airport (FAOR)
Time Latitude Longitude Altitude Speed Heading
2026-05-05 06:06 -22.48801 25.87601 37616 ft 543 kts 161°
2026-05-05 06:07 -22.55782 25.90832 37834 ft 546 kts 161°
2026-05-05 06:07 -22.59273 25.92448 38014 ft 546 kts 161°
2026-05-05 06:07 -22.62767 25.94067 38179 ft 546 kts 161°
2026-05-05 06:08 -22.66264 25.95688 38353 ft 546 kts 161°
2026-05-05 06:08 -22.69740 25.97301 38612 ft 544 kts 161°
2026-05-05 06:08 -22.73220 25.98917 38763 ft 544 kts 161°
2026-05-05 06:08 -22.76657 26.00513 38934 ft 544 kts 161°
2026-05-05 06:09 -22.83640 26.03758 39154 ft 546 kts 161°
2026-05-05 06:09 -22.87125 26.05380 39324 ft 545 kts 161°
2026-05-05 06:09 -22.90611 26.07003 39486 ft 544 kts 161°
2026-05-05 06:10 -22.94089 26.08622 39641 ft 544 kts 161°
2026-05-05 06:10 -22.97561 26.10241 39785 ft 543 kts 161°
2026-05-05 06:10 -23.01030 26.11858 39935 ft 542 kts 161°
2026-05-05 06:10 -23.04508 26.13480 40085 ft 542 kts 161°
2026-05-05 06:11 -23.07969 26.15096 40227 ft 541 kts 161°
2026-05-05 06:11 -23.11383 26.16691 40372 ft 541 kts 161°
2026-05-05 06:11 -23.14836 26.18304 40513 ft 540 kts 161°
2026-05-05 06:11 -23.18293 26.19920 40653 ft 540 kts 161°
2026-05-05 06:12 -23.21749 26.21537 40792 ft 539 kts 161°
2026-05-05 06:12 -23.25191 26.23148 40927 ft 539 kts 161°
2026-05-05 06:12 -23.32075 26.26373 41003 ft 539 kts 161°
2026-05-05 06:13 -23.38952 26.29598 41018 ft 538 kts 161°
2026-05-05 06:13 -23.45824 26.32825 41018 ft 538 kts 161°
2026-05-05 06:14 -23.52707 26.36060 41018 ft 538 kts 161°
2026-05-05 06:14 -23.59547 26.39279 41028 ft 542 kts 161°
2026-05-05 06:15 -23.66492 26.42549 41039 ft 544 kts 161°
2026-05-05 06:15 -23.73438 26.45824 41029 ft 542 kts 161°
2026-05-05 06:16 -23.80363 26.49069 41026 ft 542 kts 161°
2026-05-05 06:16 -23.87324 26.52333 41036 ft 545 kts 162°
2026-05-05 06:17 -23.94278 26.55600 41037 ft 544 kts 162°
2026-05-05 06:17 -24.01223 26.58867 41038 ft 541 kts 161°
2026-05-05 06:18 -24.08085 26.62100 41020 ft 539 kts 161°
2026-05-05 06:18 -24.15004 26.65362 41048 ft 545 kts 161°
2026-05-05 06:19 -24.21965 26.68648 41047 ft 544 kts 161°
2026-05-05 06:19 -24.28865 26.72091 41052 ft 548 kts 155°
2026-05-05 06:20 -24.35267 26.76727 41086 ft 555 kts 143°
2026-05-05 06:20 -24.41110 26.82356 41055 ft 559 kts 140°
2026-05-05 06:21 -24.46911 26.87984 41043 ft 559 kts 140°
2026-05-05 06:21 -24.52705 26.93618 41067 ft 555 kts 140°
2026-05-05 06:22 -24.58496 26.99265 41100 ft 556 kts 140°
2026-05-05 06:22 -24.64308 27.04944 41083 ft 559 kts 140°
2026-05-05 06:23 -24.70114 27.10623 40952 ft 558 kts 140°
2026-05-05 06:23 -24.73014 27.13462 40706 ft 558 kts 140°
2026-05-05 06:23 -24.75891 27.16281 40465 ft 558 kts 140°
2026-05-05 06:24 -24.78790 27.19122 40205 ft 557 kts 140°
2026-05-05 06:24 -24.81676 27.21954 39991 ft 556 kts 140°
2026-05-05 06:24 -24.84577 27.24801 39764 ft 560 kts 140°
2026-05-05 06:24 -24.87481 27.27655 39488 ft 559 kts 140°
2026-05-05 06:25 -24.90384 27.30507 38965 ft 559 kts 140°
2026-05-05 06:25 -24.93290 27.33366 38213 ft 562 kts 140°
2026-05-05 06:25 -24.96200 27.36232 37511 ft 560 kts 140°
2026-05-05 06:25 -24.99109 27.39092 36740 ft 558 kts 141°
2026-05-05 06:26 -25.02226 27.41610 35954 ft 553 kts 153°
2026-05-05 06:26 -25.05646 27.43496 35219 ft 544 kts 165°
2026-05-05 06:26 -25.09233 27.44696 34394 ft 534 kts 176°
2026-05-05 06:26 -25.12827 27.45176 33527 ft 521 kts 187°
2026-05-05 06:27 -25.16401 27.44977 32496 ft 510 kts 196°
2026-05-05 06:27 -25.23520 27.44084 30518 ft 518 kts 192°
2026-05-05 06:27 -25.27117 27.43901 29806 ft 516 kts 189°
2026-05-05 06:28 -25.30695 27.43857 29135 ft 511 kts 187°
2026-05-05 06:28 -25.34237 27.43883 28478 ft 505 kts 187°
2026-05-05 06:28 -25.37735 27.43935 27802 ft 500 kts 186°
2026-05-05 06:28 -25.40026 27.43971 27339 ft 496 kts 186°
2026-05-05 06:29 -25.43455 27.44024 26684 ft 490 kts 186°
2026-05-05 06:29 -25.46849 27.44073 26049 ft 484 kts 185°
2026-05-05 06:29 -25.50204 27.44119 25417 ft 479 kts 185°
2026-05-05 06:29 -25.54587 27.44177 24589 ft 472 kts 185°
2026-05-05 06:30 -25.56795 27.44207 24214 ft 468 kts 184°
2026-05-05 06:30 -25.60000 27.44252 23990 ft 452 kts 184°
2026-05-05 06:30 -25.63094 27.44299 23829 ft 435 kts 184°
2026-05-05 06:30 -25.66027 27.44344 23685 ft 419 kts 184°
2026-05-05 06:31 -25.68888 27.44441 23507 ft 406 kts 178°
2026-05-05 06:31 -25.71606 27.45207 23180 ft 403 kts 160°
2026-05-05 06:31 -25.74008 27.46800 22631 ft 404 kts 141°
2026-05-05 06:31 -25.75860 27.49111 22181 ft 397 kts 121°
2026-05-05 06:32 -25.77102 27.51817 21665 ft 391 kts 111°
2026-05-05 06:32 -25.78188 27.54574 21155 ft 388 kts 112°
2026-05-05 06:32 -25.79362 27.57259 20637 ft 386 kts 115°
2026-05-05 06:32 -25.80650 27.59867 20164 ft 384 kts 118°
2026-05-05 06:33 -25.82003 27.62404 19663 ft 380 kts 120°
2026-05-05 06:33 -25.83383 27.64897 19166 ft 378 kts 120°
2026-05-05 06:33 -25.84767 27.67367 18664 ft 376 kts 120°
2026-05-05 06:33 -25.86144 27.69821 18171 ft 373 kts 120°
2026-05-05 06:34 -25.87507 27.72254 17795 ft 367 kts 120°
2026-05-05 06:34 -25.88853 27.74665 17542 ft 369 kts 120°
2026-05-05 06:34 -25.90204 27.77089 17288 ft 369 kts 120°
2026-05-05 06:34 -25.91550 27.79507 17034 ft 367 kts 120°
2026-05-05 06:35 -25.92891 27.81913 16786 ft 365 kts 120°
2026-05-05 06:35 -25.94225 27.84309 16535 ft 364 kts 120°
2026-05-05 06:35 -25.95553 27.86698 16282 ft 363 kts 120°
2026-05-05 06:35 -25.96879 27.89082 16064 ft 362 kts 120°
2026-05-05 06:36 -25.98200 27.91458 15812 ft 360 kts 120°
2026-05-05 06:36 -25.99498 27.93795 15566 ft 359 kts 120°
2026-05-05 06:36 -26.00807 27.96153 15333 ft 358 kts 120°
2026-05-05 06:36 -26.02112 27.98505 15103 ft 356 kts 120°
2026-05-05 06:37 -26.03407 28.00841 14964 ft 350 kts 120°
2026-05-05 06:37 -26.04664 28.03109 14855 ft 337 kts 120°
2026-05-05 06:37 -26.05864 28.05275 14716 ft 321 kts 120°
2026-05-05 06:37 -26.07015 28.07342 14464 ft 309 kts 122°
2026-05-05 06:38 -26.08472 28.09046 14130 ft 300 kts 148°
2026-05-05 06:38 -26.10345 28.09937 13903 ft 293 kts 174°
2026-05-05 06:38 -26.12329 28.10152 13647 ft 288 kts 184°
2026-05-05 06:38 -26.14293 28.10001 13411 ft 277 kts 199°
2026-05-05 06:39 -26.16088 28.09338 13148 ft 268 kts 213°
2026-05-05 06:39 -26.17795 28.08500 12882 ft 268 kts 210°
2026-05-05 06:39 -26.19537 28.07734 12646 ft 269 kts 208°
2026-05-05 06:39 -26.21294 28.07010 12390 ft 268 kts 207°
2026-05-05 06:40 -26.23038 28.06312 12152 ft 265 kts 207°
2026-05-05 06:40 -26.24784 28.05616 11908 ft 266 kts 207°
2026-05-05 06:40 -26.26530 28.04916 11667 ft 267 kts 207°
2026-05-05 06:40 -26.28255 28.04225 11441 ft 265 kts 207°
2026-05-05 06:41 -26.29980 28.03531 11161 ft 261 kts 207°
2026-05-05 06:41 -26.31672 28.02851 10880 ft 257 kts 207°
2026-05-05 06:41 -26.33356 28.02169 10598 ft 258 kts 207°
2026-05-05 06:41 -26.35036 28.01478 10320 ft 255 kts 207°
2026-05-05 06:42 -26.36702 28.00801 10076 ft 256 kts 204°
2026-05-05 06:42 -26.38520 28.00669 9855 ft 271 kts 176°
2026-05-05 06:42 -26.40284 28.01443 9627 ft 278 kts 147°
2026-05-05 06:42 -26.41618 28.02998 9428 ft 279 kts 118°
2026-05-05 06:43 -26.42220 28.05015 9324 ft 271 kts 90°
2026-05-05 06:43 -26.42166 28.07092 9240 ft 266 kts 79°
2026-05-05 06:43 -26.42009 28.09130 9131 ft 262 kts 79°
2026-05-05 06:43 -26.41856 28.11130 9043 ft 262 kts 79°
2026-05-05 06:44 -26.41712 28.13159 8935 ft 261 kts 79°
2026-05-05 06:44 -26.41518 28.15204 8827 ft 272 kts 69°
2026-05-05 06:44 -26.40639 28.16901 8721 ft 239 kts 34°
2026-05-05 06:44 -26.39239 28.17735 8648 ft 223 kts 12°
2026-05-05 06:45 -26.37802 28.18185 8548 ft 206 kts
2026-05-05 06:45 -26.36460 28.18585 8439 ft 196 kts
2026-05-05 06:45 -26.35147 28.18995 8341 ft 196 kts
2026-05-05 06:45 -26.33843 28.19402 8251 ft 193 kts
2026-05-05 06:46 -26.32552 28.19804 8142 ft 192 kts
2026-05-05 06:46 -26.31275 28.20205 8088 ft 188 kts
2026-05-05 06:46 -26.30060 28.20587 8050 ft 172 kts
2026-05-05 06:46 -26.28959 28.20928 7980 ft 167 kts
2026-05-05 06:47 -26.27825 28.21277 7787 ft 170 kts
2026-05-05 06:47 -26.26706 28.21629 7571 ft 164 kts
2026-05-05 06:47 -26.25631 28.21962 7357 ft 156 kts
2026-05-05 06:47 -26.24623 28.22281 7151 ft 148 kts
2026-05-05 06:48 -26.23605 28.22594 6991 ft 148 kts
2026-05-05 06:48 -26.22667 28.22891 6799 ft 134 kts
2026-05-05 06:48 -26.21736 28.23171 6634 ft 141 kts
2026-05-05 06:48 -26.20797 28.23465 6454 ft 138 kts 10°
2026-05-05 06:49 -26.19863 28.23781 6288 ft 142 kts 11°
2026-05-05 06:49 -26.18916 28.24065 6093 ft 143 kts 11°
2026-05-05 06:49 -26.17955 28.24359 5889 ft 146 kts 12°
2026-05-05 06:49 -26.16985 28.24656 5655 ft 140 kts 13°
2026-05-05 06:50 -26.16038 28.24951 5531 ft 143 kts 14°
2026-05-05 06:50 -26.15207 28.25204 5518 ft 97 kts 15°
2026-05-05 06:50 -26.14745 28.25349 5510 ft 51 kts 15°
2026-05-05 06:50 -26.14429 28.25446 5513 ft 45 kts 15°
2026-05-05 06:51 -26.14175 28.25473 5517 ft 34 kts 352°
2026-05-05 06:51 -26.13953 28.25431 5516 ft 29 kts 351°
2026-05-05 06:51 -26.13756 28.25447 5514 ft 28 kts 15°
2026-05-05 06:51 -26.13561 28.25508 5508 ft 30 kts 15°
2026-05-05 06:52 -26.13402 28.25513 5518 ft 23 kts 348°
2026-05-05 06:52 -26.13228 28.25473 5527 ft 29 kts 348°
2026-05-05 06:52 -26.13034 28.25399 5532 ft 29 kts 328°
2026-05-05 06:52 -26.12896 28.25240 5532 ft 28 kts 301°
2026-05-05 06:53 -26.12833 28.25038 5532 ft 27 kts 285°
2026-05-05 06:53 -26.12782 28.24837 5532 ft 27 kts 285°
2026-05-05 06:53 -26.12732 28.24641 5538 ft 26 kts 285°
2026-05-05 06:53 -26.12687 28.24459 5543 ft 23 kts 285°
2026-05-05 06:54 -26.12643 28.24284 5547 ft 24 kts 285°
2026-05-05 06:54 -26.12597 28.24105 5549 ft 24 kts 285°
2026-05-05 06:54 -26.12556 28.23942 5551 ft 13 kts 285°
2026-05-05 06:54 -26.12576 28.23872 5552 ft 9 kts 211°
2026-05-05 06:55 -26.12647 28.23850 5554 ft 12 kts 195°
2026-05-05 06:55 -26.12752 28.23818 5553 ft 18 kts 195°
2026-05-05 06:55 -26.12886 28.23777 5551 ft 21 kts 195°
2026-05-05 06:55 -26.13030 28.23732 5553 ft 22 kts 195°
2026-05-05 06:56 -26.13124 28.23689 5555 ft 12 kts 228°
2026-05-05 06:56 -26.13127 28.23592 5552 ft 13 kts 276°
2026-05-05 06:56 -26.13115 28.23492 5555 ft 11 kts 276°
2026-05-05 06:56 -26.13121 28.23431 5555 ft 8 kts 244°
2026-05-05 06:57 -26.13175 28.23410 5555 ft 9 kts 185°
2026-05-05 06:57 -26.13229 28.23381 5555 ft 6 kts 243°
2026-05-05 06:57 -26.13230 28.23347 5555 ft 1 kts 271°
2026-05-05 06:57 -26.13228 28.23331 5555 ft 1 kts 275°
2026-05-05 06:58 -26.13227 28.23319 5554 ft 1 kts 275°
2026-05-05 06:58 -26.13227 28.23311 5553 ft 1 kts 276°
2026-05-05 06:58 -26.13227 28.23309 5552 ft 0 kts 276°